TimeEDT,TemperatureF,Dew PointF,Humidity,Sea Level PressureIn,VisibilityMPH,Wind Direction,Wind SpeedMPH,Gust SpeedMPH,PrecipitationIn,Events,Conditions,WindDirDegrees,DateUTC
12:15 AM,55.6,49.5,80,29.94,10.0,SSE,5.8,-,N/A,,Clear,160,2013-04-30 04:15:00
12:35 AM,55.2,49.3,80,29.94,10.0,SSE,5.8,-,N/A,,Clear,160,2013-04-30 04:35:00
12:55 AM,55.0,49.1,80,29.95,10.0,South,6.9,-,N/A,,Clear,170,2013-04-30 04:55:00
1:15 AM,54.9,49.1,81,29.96,10.0,South,6.9,-,N/A,,Clear,170,2013-04-30 05:15:00
1:35 AM,54.3,49.1,83,29.96,10.0,South,8.1,-,N/A,,Clear,170,2013-04-30 05:35:00
1:55 AM,54.3,49.1,83,29.96,10.0,South,8.1,-,N/A,,Clear,170,2013-04-30 05:55:00
2:15 AM,54.1,48.9,82,29.96,10.0,SSE,6.9,-,N/A,,Clear,160,2013-04-30 06:15:00
2:35 AM,53.8,48.7,83,29.96,7.0,SSE,8.1,-,N/A,,Clear,160,2013-04-30 06:35:00
2:55 AM,54.0,48.7,82,29.96,10.0,South,9.2,-,N/A,,Clear,170,2013-04-30 06:55:00
3:15 AM,54.0,48.9,83,29.96,7.0,South,8.1,-,N/A,,Clear,170,2013-04-30 07:15:00
3:35 AM,53.4,48.6,84,29.96,7.0,South,8.1,-,N/A,,Clear,170,2013-04-30 07:35:00
3:55 AM,52.9,48.4,85,29.95,7.0,SSE,8.1,-,N/A,,Clear,160,2013-04-30 07:55:00
4:15 AM,52.9,48.4,85,29.96,7.0,South,8.1,-,N/A,,Clear,170,2013-04-30 08:15:00
4:35 AM,52.7,48.2,85,29.96,10.0,South,8.1,-,N/A,,Clear,170,2013-04-30 08:35:00
4:55 AM,52.5,47.8,84,29.96,10.0,South,5.8,-,N/A,,Clear,170,2013-04-30 08:55:00
5:15 AM,52.0,47.7,85,29.96,7.0,South,8.1,-,N/A,,Clear,180,2013-04-30 09:15:00
5:35 AM,51.8,47.5,85,29.96,10.0,South,6.9,-,N/A,,Clear,170,2013-04-30 09:35:00
5:55 AM,51.6,47.3,85,29.96,7.0,South,9.2,-,N/A,,Clear,170,2013-04-30 09:55:00
6:15 AM,51.6,47.3,85,29.96,7.0,South,8.1,-,N/A,,Clear,170,2013-04-30 10:15:00
6:35 AM,51.1,46.9,86,29.97,7.0,South,5.8,-,N/A,,Clear,170,2013-04-30 10:35:00
6:55 AM,50.9,46.6,85,29.97,7.0,SSE,6.9,-,N/A,,Clear,160,2013-04-30 10:55:00
7:15 AM,51.1,46.9,86,29.98,10.0,South,6.9,-,N/A,,Clear,170,2013-04-30 11:15:00
7:35 AM,51.8,47.3,85,29.98,7.0,South,8.1,-,N/A,,Clear,170,2013-04-30 11:35:00
7:55 AM,52.9,47.8,83,29.98,7.0,South,9.2,-,N/A,,Clear,170,2013-04-30 11:55:00
8:15 AM,54.0,48.4,81,29.99,7.0,South,10.4,-,N/A,,Clear,170,2013-04-30 12:15:00
8:35 AM,55.2,48.9,79,29.99,7.0,South,10.4,-,N/A,,Clear,170,2013-04-30 12:35:00
8:55 AM,56.7,49.6,77,29.99,10.0,South,12.7,-,N/A,,Clear,170,2013-04-30 12:55:00
9:15 AM,58.3,50.4,75,29.99,7.0,South,13.8,-,N/A,,Clear,170,2013-04-30 13:15:00
9:35 AM,60.1,51.1,72,30.00,7.0,South,11.5,-,N/A,,Clear,170,2013-04-30 13:35:00
9:55 AM,61.9,51.4,69,30.01,10.0,South,13.8,-,N/A,,Clear,190,2013-04-30 13:55:00
10:15 AM,62.8,52.0,68,30.01,7.0,South,13.8,18.4,N/A,,Clear,190,2013-04-30 14:15:00
10:35 AM,64.0,52.0,65,30.00,7.0,South,16.1,-,N/A,,Clear,190,2013-04-30 14:35:00
10:55 AM,65.3,52.5,63,30.00,10.0,South,16.1,-,N/A,,Clear,180,2013-04-30 14:55:00
11:15 AM,66.2,52.7,62,30.00,10.0,South,17.3,-,N/A,,Clear,180,2013-04-30 15:15:00
11:35 AM,67.3,53.2,61,30.00,10.0,South,16.1,20.7,N/A,,Clear,180,2013-04-30 15:35:00
11:55 AM,68.4,54.0,60,30.00,10.0,South,12.7,19.6,N/A,,Clear,170,2013-04-30 15:55:00
12:15 PM,69.8,54.5,58,30.00,10.0,SSE,12.7,18.4,N/A,,Clear,160,2013-04-30 16:15:00
12:35 PM,70.7,55.0,58,30.00,10.0,South,11.5,-,N/A,,Clear,190,2013-04-30 16:35:00
12:55 PM,71.4,54.5,55,30.00,10.0,South,15.0,19.6,N/A,,Clear,190,2013-04-30 16:55:00
1:15 PM,72.1,55.0,55,30.00,7.0,South,10.4,-,N/A,,Clear,180,2013-04-30 17:15:00
1:35 PM,72.7,55.0,54,29.99,10.0,South,15.0,18.4,N/A,,Clear,190,2013-04-30 17:35:00
1:55 PM,73.2,55.6,54,29.99,10.0,South,15.0,19.6,N/A,,Clear,180,2013-04-30 17:55:00
2:15 PM,73.6,55.4,53,29.99,10.0,South,12.7,17.3,N/A,,Clear,180,2013-04-30 18:15:00
2:35 PM,74.7,56.3,53,29.99,10.0,South,12.7,19.6,N/A,,Clear,190,2013-04-30 18:35:00
2:55 PM,74.8,55.9,52,29.98,10.0,South,15.0,18.4,N/A,,Clear,190,2013-04-30 18:55:00
3:15 PM,75.0,56.5,52,29.98,10.0,South,12.7,-,N/A,,Clear,180,2013-04-30 19:15:00
3:35 PM,75.4,56.7,52,29.98,10.0,South,10.4,18.4,N/A,,Clear,190,2013-04-30 19:35:00
3:55 PM,75.9,57.0,52,29.97,10.0,SSE,12.7,16.1,N/A,,Clear,160,2013-04-30 19:55:00
4:15 PM,76.3,57.0,51,29.97,7.0,South,11.5,-,N/A,,Clear,180,2013-04-30 20:15:00
4:35 PM,76.6,57.6,52,29.97,7.0,South,13.8,-,N/A,,Clear,170,2013-04-30 20:35:00
4:55 PM,76.6,57.4,51,29.96,7.0,South,11.5,-,N/A,,Clear,180,2013-04-30 20:55:00
5:15 PM,76.6,57.6,52,29.96,7.0,South,13.8,-,N/A,,Clear,170,2013-04-30 21:15:00
5:35 PM,76.5,57.2,51,29.97,10.0,South,11.5,-,N/A,,Clear,170,2013-04-30 21:35:00
5:55 PM,76.6,56.7,50,29.97,10.0,South,13.8,-,N/A,,Clear,180,2013-04-30 21:55:00
6:15 PM,76.5,57.0,51,29.98,10.0,South,13.8,-,N/A,,Clear,170,2013-04-30 22:15:00
6:35 PM,76.3,57.2,52,29.98,10.0,SSE,12.7,-,N/A,,Clear,160,2013-04-30 22:35:00
6:55 PM,76.1,57.2,52,29.98,10.0,South,12.7,-,N/A,,Clear,170,2013-04-30 22:55:00
7:15 PM,75.7,56.8,52,29.99,7.0,South,11.5,-,N/A,,Clear,170,2013-04-30 23:15:00
7:35 PM,75.0,57.2,54,29.99,7.0,South,11.5,-,N/A,,Clear,180,2013-04-30 23:35:00
7:55 PM,74.3,57.2,55,30.00,7.0,South,9.2,-,N/A,,Clear,190,2013-04-30 23:55:00
8:15 PM,73.2,57.4,57,30.01,7.0,South,8.1,-,N/A,,Clear,170,2013-05-01 00:15:00
8:35 PM,71.6,57.4,61,30.01,7.0,SSE,6.9,-,N/A,,Clear,160,2013-05-01 00:35:00
8:55 PM,70.2,56.5,62,30.02,7.0,SSE,5.8,-,N/A,,Clear,150,2013-05-01 00:55:00
9:15 PM,68.9,55.9,63,30.02,10.0,SSE,8.1,-,N/A,,Clear,150,2013-05-01 01:15:00
9:35 PM,68.7,54.7,61,30.03,10.0,SSE,9.2,-,N/A,,Clear,150,2013-05-01 01:35:00
9:55 PM,68.0,53.8,60,30.03,10.0,SSE,6.9,-,N/A,,Clear,160,2013-05-01 01:55:00
10:15 PM,66.7,53.6,63,30.04,10.0,SSE,6.9,-,N/A,,Clear,160,2013-05-01 02:15:00
10:35 PM,66.2,52.7,62,30.04,10.0,SSE,6.9,-,N/A,,Clear,160,2013-05-01 02:35:00
10:55 PM,65.5,52.0,62,30.04,10.0,SSE,8.1,-,N/A,,Clear,160,2013-05-01 02:55:00
11:15 PM,65.1,51.6,62,30.04,10.0,SSE,9.2,-,N/A,,Clear,160,2013-05-01 03:15:00
11:35 PM,64.6,51.1,62,30.04,10.0,SSE,8.1,-,N/A,,Clear,150,2013-05-01 03:35:00
11:55 PM,64.0,50.9,62,30.05,10.0,SSE,6.9,-,N/A,,Clear,160,2013-05-01 03:55:00